User: anonymous   Login
Location: La Comballaz
(46.3780°N, 7.0817°E)
Time: 09:50:58
(UTC+00:00)
Language:

XW-2F - Orbit

View from above orbital plane
View from above orbital plane
View from above satellite
View from above satellite

Ground track
Ground track

The orbit data is extracted from the following two-line orbital elements,

1 40910U 15049M   22330.86136870  .00009329  00000-0  36002-3 0  9999
2 40910  97.4715 337.4941 0013786 118.1684   3.7875 15.26422949397928
Epoch (UTC): 26 November 2022 20:40:22
Eccentricity: 0.0013786
inclination: 97.4715°
perigee height: 477 km
apogee height: 496 km
right ascension of ascending node: 337.4941°
argument of perigee: 118.1684°
revolutions per day: 15.26422949
mean anomaly at epoch: 3.7875°
orbit number at epoch: 39792

The dashed part of the orbit path shows where the satellite is in the earth's shadow,  

DLR